Weather History for KCKP - March, 2013

Change the Weather History Date:

Sunday, March 10, 2013

  Actual Average Record
Temperature  
Mean Temperature 28 °F -  
Max Temperature 32 °F - - ()
Min Temperature 23 °F - - ()
Degree Days  
Heating Degree Days 38    
Moisture  
Dew Point 25 °F    
Average Humidity 93    
Maximum Humidity 96    
Minimum Humidity 88    
Precipitation  
Precipitation 0.03 in - - ()
Sea Level Pressure  
Sea Level Pressure 29.86 in    
Wind  
Wind Speed 17 mph (North)    
Max Wind Speed 26 mph    
Max Gust Speed 34 mph    
Visibility 4 miles    
Events Snow    
T = Trace of Precipitation, MM = Missing Value Source: NWS Daily Summary

Daily Weather History Graph

Daily Weather History Graph

Search for Another Location

Airport or City:

Trip Planner

Search our weather history database for the weather conditions in past years. The results will help you decide how hot, cold, wet, or windy it might be!

Date:

Astronomy

Mar. 10, 2013 Rise Set
Actual Time 7:42 AM CDT 7:23 PM CDT
Civil Twilight 7:14 AM CDT 7:51 PM CDT
Nautical Twilight 6:41 AM CDT 8:24 PM CDT
Astronomical Twilight 6:08 AM CDT 8:57 PM CDT
Moon 6:43 AM CDT (3/10) 6:31 PM CDT (3/10)
Length of Visible Light 12h 37m
Length of Day
11h 40m
Waning Crescent, 2% of the Moon is Illuminated
Mar 10
Waning Crescent
Mar 11
New
Mar 19
First Quarter
Mar 27
Full
Apr 2
Last Quarter

Hourly Weather History & Observations

Time (CDT) Temp. Windchill Dew Point Humidity Pressure Visibility Wind Dir Wind Speed Gust Speed Precip Events Conditions
12:15 AM 32.4 °F 23.0 °F 31.5 °F 96% 29.77 in 7.0 mi North 12.7 mph 19.6 mph N/A   Overcast
12:35 AM 32.2 °F 21.8 °F 31.1 °F 96% 29.75 in 7.0 mi North 15.0 mph 23.0 mph N/A   Overcast
12:55 AM 32.0 °F 21.2 °F 31.1 °F 96% 29.75 in 7.0 mi North 16.1 mph 24.2 mph N/A   Overcast
1:15 AM 32.0 °F 21.6 °F 31.1 °F 96% 29.77 in 10.0 mi North 15.0 mph 26.5 mph N/A   Overcast
1:35 AM 32.0 °F 20.8 °F 30.7 °F 95% 29.76 in 10.0 mi North 17.3 mph 24.2 mph N/A   Overcast
1:55 AM 32.0 °F 20.1 °F 30.0 °F 92% 29.76 in 7.0 mi North 19.6 mph 29.9 mph N/A Snow Light Snow
3:15 AM 32.0 °F 20.5 °F 29.8 °F 92% 29.77 in 7.0 mi North 18.4 mph 29.9 mph N/A   Overcast
3:35 AM 31.6 °F 20.4 °F 29.3 °F 91% 29.78 in 7.0 mi North 17.3 mph 26.5 mph N/A   Overcast
3:55 AM 31.5 °F 20.1 °F 29.1 °F 91% 29.77 in 5.0 mi North 17.3 mph 25.3 mph N/A   Overcast
4:15 AM 30.9 °F 19.1 °F 28.4 °F 90% 29.77 in 5.0 mi North 18.4 mph 31.1 mph N/A Snow Light Snow
4:35 AM 30.9 °F 20.7 °F 28.4 °F 90% 29.78 in 7.0 mi North 13.8 mph 26.5 mph N/A   Overcast
4:55 AM 30.6 °F 19.4 °F 28.2 °F 91% 29.77 in 5.0 mi North 16.1 mph 27.6 mph N/A   Overcast
5:15 AM 30.2 °F 17.8 °F 28.2 °F 92% 29.78 in 3.0 mi North 19.6 mph 27.6 mph N/A Snow Light Snow
5:35 AM 30.2 °F 17.1 °F 28.0 °F 92% 29.82 in 5.0 mi North 21.9 mph 29.9 mph N/A Snow Light Snow
5:55 AM 30.0 °F 19.1 °F 27.5 °F 90% 29.83 in 3.0 mi North 15.0 mph 31.1 mph N/A Snow Light Snow
6:15 AM 29.3 °F 17.7 °F 27.3 °F 92% 29.82 in 1.5 mi North 16.1 mph 29.9 mph N/A Snow Light Snow
6:35 AM 29.1 °F 16.4 °F 27.3 °F 93% 29.84 in 1.2 mi North 19.6 mph 26.5 mph N/A Snow Light Snow
7:15 AM 28.8 °F 17.0 °F 27.1 °F 94% 29.89 in 1.2 mi North 16.1 mph 24.2 mph N/A Snow Light Snow
7:35 AM 27.7 °F 15.6 °F 26.2 °F 94% 29.87 in 1.0 mi North 16.1 mph 25.3 mph N/A Snow Light Snow
7:55 AM 27.1 °F 15.4 °F 25.9 °F 95% 29.88 in 0.5 mi North 15.0 mph 25.3 mph N/A Snow Snow
8:15 AM 27.1 °F 14.1 °F 25.7 °F 94% 29.87 in 0.2 mi North 18.4 mph 28.8 mph N/A Snow Snow
8:35 AM 27.1 °F 14.1 °F 26.1 °F 96% 29.86 in - North 18.4 mph 24.2 mph N/A   Overcast
8:55 AM 27.3 °F 15.2 °F 26.1 °F 95% 29.88 in - North 16.1 mph 21.9 mph N/A   Overcast
9:15 AM 27.0 °F 14.7 °F 25.5 °F 94% 29.87 in - North 16.1 mph 25.3 mph N/A   Overcast
9:35 AM 26.6 °F 13.8 °F 25.2 °F 94% 29.88 in - North 17.3 mph 27.6 mph N/A   Overcast
9:55 AM 27.0 °F 14.7 °F 25.0 °F 92% 29.90 in - North 16.1 mph 23.0 mph N/A   Unknown
10:15 AM 26.6 °F 13.1 °F 24.3 °F 91% 29.88 in - North 19.6 mph 29.9 mph N/A   Overcast
10:35 AM 26.6 °F 13.8 °F 23.9 °F 90% 29.88 in - North 17.3 mph 27.6 mph N/A   Overcast
10:55 AM 26.6 °F 14.3 °F 23.9 °F 90% 29.89 in - North 16.1 mph 26.5 mph N/A   Overcast
11:15 AM 26.6 °F 13.1 °F 23.5 °F 88% 29.90 in - North 19.6 mph 26.5 mph N/A   Overcast
11:35 AM 26.6 °F 12.4 °F 23.5 °F 88% 29.89 in - North 21.9 mph 32.2 mph N/A   Overcast
11:55 AM 26.6 °F 13.4 °F 23.9 °F 90% 29.89 in - North 18.4 mph 34.5 mph N/A   Overcast
12:15 PM 26.6 °F 11.1 °F 23.9 °F 90% 29.87 in - North 26.5 mph 32.2 mph N/A   Overcast
12:35 PM 26.6 °F 12.7 °F 23.9 °F 90% 29.90 in - North 20.7 mph 27.6 mph N/A   Overcast
12:55 PM 26.6 °F 13.1 °F 23.9 °F 90% 29.87 in - North 19.6 mph 29.9 mph N/A   Overcast
1:15 PM 26.6 °F 11.7 °F 23.9 °F 90% 29.86 in - North 24.2 mph 33.4 mph N/A   Overcast
1:35 PM 26.4 °F 11.2 °F 23.5 °F 89% 29.88 in - North 25.3 mph 32.2 mph N/A   Overcast
1:55 PM 26.4 °F 13.6 °F 23.7 °F 90% 29.89 in - North 17.3 mph 25.3 mph N/A   Overcast
2:15 PM 26.1 °F 12.0 °F 23.7 °F 91% 29.88 in - North 20.7 mph 32.2 mph N/A   Unknown
2:35 PM 26.1 °F 11.0 °F 23.9 °F 92% 29.87 in - North 24.2 mph 32.2 mph N/A   Overcast
2:55 PM 26.1 °F 12.7 °F 23.9 °F 92% 29.85 in - North 18.4 mph 31.1 mph N/A   Overcast
3:15 PM 26.1 °F 12.3 °F 24.3 °F 93% 29.85 in - North 19.6 mph 27.6 mph N/A   Overcast
3:35 PM 25.9 °F 11.4 °F 24.1 °F 93% 29.86 in - North 21.9 mph 31.1 mph N/A   Overcast
3:55 PM 25.7 °F 11.2 °F 24.3 °F 94% 29.85 in - North 21.9 mph 29.9 mph N/A   Overcast
4:15 PM 25.7 °F 12.3 °F 23.9 °F 93% 29.86 in 0.2 mi North 18.4 mph 33.4 mph N/A Snow Snow
4:35 PM 25.7 °F 11.9 °F 23.9 °F 93% 29.86 in 0.5 mi North 19.6 mph 29.9 mph N/A Snow Snow
4:55 PM 25.7 °F 13.1 °F 23.9 °F 93% 29.86 in 0.5 mi North 16.1 mph 26.5 mph N/A Snow Snow
5:15 PM 25.5 °F 12.0 °F 23.9 °F 94% 29.86 in 0.5 mi North 18.4 mph 27.6 mph N/A Snow Snow
5:35 PM 25.2 °F 10.8 °F 23.7 °F 94% 29.87 in 0.2 mi North 20.7 mph 28.8 mph N/A Snow Heavy Snow
5:55 PM 25.2 °F 11.2 °F 23.7 °F 94% 29.87 in - North 19.6 mph 32.2 mph 0.01 in   Overcast
6:15 PM 24.8 °F 11.5 °F 23.5 °F 95% 29.88 in - North 17.3 mph 25.3 mph N/A   Overcast
6:35 PM 25.0 °F 11.3 °F 23.7 °F 95% 29.89 in - North 18.4 mph 25.3 mph N/A   Overcast
6:55 PM 24.8 °F 10.3 °F 23.7 °F 96% 29.89 in - North 20.7 mph 28.8 mph 0.01 in   Overcast
7:15 PM 24.8 °F 10.7 °F 23.5 °F 95% 29.88 in - North 19.6 mph 31.1 mph N/A   Overcast
7:35 PM 24.4 °F 10.2 °F 23.0 °F 94% 29.89 in - North 19.6 mph 31.1 mph N/A   Overcast
7:55 PM 24.4 °F 10.2 °F 23.0 °F 94% 29.89 in - North 19.6 mph 25.3 mph N/A   Overcast
8:15 PM 23.9 °F 10.8 °F 22.8 °F 96% 29.89 in - North 16.1 mph 29.9 mph N/A   Overcast
8:35 PM 23.9 °F 10.3 °F 22.6 °F 95% 29.89 in - North 17.3 mph 26.5 mph N/A   Overcast
8:55 PM 23.7 °F 9.7 °F 22.3 °F 94% 29.89 in - NNW 18.4 mph 27.6 mph N/A   Overcast
9:15 PM 23.7 °F 9.3 °F 22.5 °F 95% 29.89 in - North 19.6 mph 27.6 mph 0.01 in   Overcast
9:35 PM 23.7 °F 10.1 °F 22.1 °F 94% 29.89 in - North 17.3 mph 25.3 mph 0.01 in   Overcast
9:55 PM 23.4 °F 9.2 °F 21.9 °F 94% 29.90 in - NNW 18.4 mph 24.2 mph 0.01 in   Overcast
10:15 PM 23.0 °F 9.6 °F 21.7 °F 95% 29.90 in - North 16.1 mph 24.2 mph N/A   Overcast
10:35 PM 23.0 °F 9.2 °F 21.6 °F 94% 29.91 in - North 17.3 mph 26.5 mph N/A   Overcast
10:55 PM 23.0 °F 9.6 °F 21.2 °F 93% 29.90 in - North 16.1 mph 26.5 mph N/A   Overcast
11:15 PM 23.0 °F 9.2 °F 21.2 °F 93% 29.90 in - North 17.3 mph 21.9 mph N/A   Overcast
11:35 PM 23.0 °F 9.6 °F 21.2 °F 93% 29.89 in - North 16.1 mph 23.0 mph N/A   Overcast
11:55 PM 23.5 °F 10.3 °F 21.2 °F 91% 29.89 in - North 16.1 mph 21.9 mph N/A   Unknown
12:15 AM 23.5 °F 10.8 °F 21.2 °F 91% 29.89 in - North 15.0 mph 20.7 mph N/A   Overcast
12:35 AM 23.2 °F 10.3 °F 21.2 °F 92% 29.89 in - North 15.0 mph 18.4 mph N/A   Overcast
12:55 AM 23.0 °F 10.6 °F 20.8 °F 91% 29.89 in - North 13.8 mph 18.4 mph N/A   Overcast